• In Deutschland
  • Länderverzeichnis
  • Für 7 Tage
  • Wassertemperatur
  • Satellitenkarten
  • Wetterkarte
  • Widgets
  • user-avatar
    Anmelden

    Stündliche Wetter Kirchheim unter Teck

    Heute, 21 Oktober, Samstag

    Zeit Temperatur Niederschläge Wind Luftdruck Luftfeuchtigkeit
    00:00 +13°C° 0 mm 2 m/S 734 mmHg 91%
    01:00 +13°C° 0 mm 2 m/S 734 mmHg 92%
    02:00 +13°C° 0 mm 2 m/S 734 mmHg 92%
    03:00 +13°C° 0 mm 2 m/S 734 mmHg 91%
    04:00 +13°C° 0 mm 2 m/S 734 mmHg 91%
    05:00 +13°C° 0 mm 2 m/S 734 mmHg 91%
    06:00 +12°C° 0 mm 2 m/S 734 mmHg 92%
    07:00 +12°C° 0 mm 2 m/S 734 mmHg 92%
    08:00 +13°C° 0 mm 3 m/S 734 mmHg 86%
    09:00 +16°C° 0 mm 3 m/S 734 mmHg 79%
    10:00 +17°C° 0 mm 4 m/S 734 mmHg 73%
    11:00 +18°C° 0 mm 4 m/S 734 mmHg 69%
    12:00 +20°C° 0 mm 4 m/S 733 mmHg 64%
    13:00 +21°C° 0 mm 4 m/S 733 mmHg 60%
    14:00 +20°C° 0,1 mm 4 m/S 733 mmHg 64%
    15:00 +19°C° 0,1 mm 3 m/S 733 mmHg 68%
    16:00 +19°C° 0,1 mm 3 m/S 733 mmHg 72%
    17:00 +18°C° 0,3 mm 2 m/S 733 mmHg 79%
    18:00 +16°C° 0,3 mm 2 m/S 733 mmHg 85%
    19:00 +15°C° 0,3 mm 2 m/S 734 mmHg 91%
    20:00 +13°C° 1,6 mm 3 m/S 734 mmHg 91%
    21:00 +12°C° 1,6 mm 3 m/S 734 mmHg 91%
    22:00 +11°C° 1,6 mm 4 m/S 735 mmHg 91%
    23:00 +11°C° 0,6 mm 4 m/S 735 mmHg 91%

    Morgen, 22 Oktober, Sonntag

    Zeit Temperatur Niederschläge Wind Luftdruck Luftfeuchtigkeit
    00:00 +10°C° 0,6 mm 4 m/S 735 mmHg 90%
    01:00 +10°C° 0,6 mm 4 m/S 736 mmHg 90%
    02:00 +10°C° 0,3 mm 4 m/S 736 mmHg 90%
    03:00 +10°C° 0,3 mm 4 m/S 735 mmHg 90%
    04:00 +9°C° 0,3 mm 3 m/S 735 mmHg 90%
    05:00 +9°C° 0,1 mm 3 m/S 735 mmHg 91%
    06:00 +8°C° 0,1 mm 3 m/S 735 mmHg 91%
    07:00 +8°C° 0,1 mm 3 m/S 735 mmHg 91%
    08:00 +8°C° 0 mm 4 m/S 735 mmHg 87%
    09:00 +8°C° 0 mm 4 m/S 736 mmHg 83%
    10:00 +9°C° 0 mm 5 m/S 736 mmHg 79%
    11:00 +9°C° 0,1 mm 5 m/S 736 mmHg 75%
    12:00 +10°C° 0,1 mm 5 m/S 735 mmHg 71%
    13:00 +10°C° 0,1 mm 5 m/S 735 mmHg 68%
    14:00 +10°C° 0,2 mm 5 m/S 735 mmHg 69%
    15:00 +11°C° 0,2 mm 4 m/S 735 mmHg 70%
    16:00 +11°C° 0,2 mm 4 m/S 735 mmHg 71%
    17:00 +10°C° 0,1 mm 3 m/S 735 mmHg 76%
    18:00 +9°C° 0,1 mm 3 m/S 735 mmHg 80%
    19:00 +8°C° 0,1 mm 3 m/S 736 mmHg 85%
    20:00 +7°C° 0,1 mm 3 m/S 736 mmHg 87%
    21:00 +7°C° 0,1 mm 3 m/S 736 mmHg 88%
    22:00 +7°C° 0,1 mm 3 m/S 736 mmHg 90%
    23:00 +7°C° 0,1 mm 3 m/S 736 mmHg 90%

    übermorgen, 23 Oktober, Montag

    Zeit Temperatur Niederschläge Wind Luftdruck Luftfeuchtigkeit
    00:00 +7°C° 0,1 mm 3 m/S 737 mmHg 90%
    01:00 +7°C° 0,1 mm 3 m/S 737 mmHg 90%
    02:00 +6°C° 0,2 mm 4 m/S 737 mmHg 90%
    03:00 +6°C° 0,2 mm 4 m/S 737 mmHg 90%
    04:00 +6°C° 0,2 mm 4 m/S 736 mmHg 91%
    05:00 +6°C° 0,2 mm 4 m/S 737 mmHg 91%
    06:00 +6°C° 0,2 mm 4 m/S 737 mmHg 91%
    07:00 +6°C° 0,2 mm 4 m/S 737 mmHg 92%
    08:00 +7°C° 0,2 mm 4 m/S 737 mmHg 90%
    09:00 +7°C° 0,2 mm 4 m/S 737 mmHg 88%
    10:00 +8°C° 0,2 mm 5 m/S 738 mmHg 86%
    11:00 +8°C° 0,2 mm 4 m/S 738 mmHg 86%
    12:00 +8°C° 0,2 mm 4 m/S 738 mmHg 85%
    13:00 +8°C° 0,2 mm 4 m/S 738 mmHg 85%
    14:00 +8°C° 0,2 mm 4 m/S 738 mmHg 86%
    15:00 +8°C° 0,2 mm 4 m/S 738 mmHg 87%
    16:00 +8°C° 0,2 mm 4 m/S 738 mmHg 88%
    17:00 +9°C° 0,1 mm 3 m/S 738 mmHg 90%
    18:00 +9°C° 0,1 mm 3 m/S 738 mmHg 91%
    19:00 +8°C° 0,1 mm 2 m/S 739 mmHg 93%
    20:00 +8°C° 0,1 mm 2 m/S 739 mmHg 94%
    21:00 +8°C° 0,1 mm 2 m/S 739 mmHg 94%
    22:00 +8°C° 0,1 mm 2 m/S 739 mmHg 94%
    23:00 +8°C° 0,2 mm 2 m/S 739 mmHg 94%

    24 Oktober, Dienstag

    Zeit Temperatur Niederschläge Wind Luftdruck Luftfeuchtigkeit
    00:00 +8°C° 0,2 mm 2 m/S 739 mmHg 95%
    01:00 +8°C° 0,2 mm 2 m/S 739 mmHg 95%
    02:00 +8°C° 0,2 mm 2 m/S 739 mmHg 94%
    03:00 +8°C° 0,2 mm 2 m/S 739 mmHg 94%
    04:00 +9°C° 0,2 mm 2 m/S 739 mmHg 94%
    05:00 +9°C° 0,2 mm 2 m/S 739 mmHg 94%
    06:00 +9°C° 0,2 mm 2 m/S 739 mmHg 94%
    07:00 +9°C° 0,2 mm 2 m/S 740 mmHg 94%
    08:00 +9°C° 0,3 mm 2 m/S 740 mmHg 93%
    09:00 +10°C° 0,3 mm 2 m/S 740 mmHg 93%
    10:00 +10°C° 0,3 mm 2 m/S 740 mmHg 92%
    11:00 +12°C° 0,1 mm 2 m/S 740 mmHg 90%
    12:00 +12°C° 0,1 mm 2 m/S 740 mmHg 89%
    13:00 +13°C° 0,1 mm 1 m/S 740 mmHg 88%
    14:00 +14°C° 0 mm 1 m/S 740 mmHg 88%
    15:00 +14°C° 0 mm 1 m/S 740 mmHg 89%
    16:00 +14°C° 0 mm 1 m/S 740 mmHg 89%
    17:00 +13°C° 0 mm 1 m/S 740 mmHg 91%
    18:00 +13°C° 0 mm 1 m/S 740 mmHg 93%
    19:00 +12°C° 0 mm 1 m/S 741 mmHg 95%
    20:00 +12°C° 0 mm 1 m/S 741 mmHg 95%
    21:00 +11°C° 0 mm 1 m/S 741 mmHg 95%
    22:00 +11°C° 0 mm 1 m/S 741 mmHg 95%
    23:00 +11°C° 0 mm 1 m/S 741 mmHg 95%

    25 Oktober, Mittwoch

    Zeit Temperatur Niederschläge Wind Luftdruck Luftfeuchtigkeit
    00:00 +10°C° 0 mm 1 m/S 741 mmHg 95%
    01:00 +10°C° 0 mm 1 m/S 741 mmHg 95%
    02:00 +10°C° 0 mm 1 m/S 741 mmHg 95%
    03:00 +10°C° 0 mm 1 m/S 741 mmHg 95%
    04:00 +10°C° 0 mm 1 m/S 740 mmHg 94%
    05:00 +10°C° 0 mm 1 m/S 741 mmHg 94%
    06:00 +10°C° 0 mm 1 m/S 741 mmHg 94%
    07:00 +10°C° 0 mm 1 m/S 741 mmHg 94%
    08:00 +11°C° 0 mm 1 m/S 741 mmHg 89%
    09:00 +13°C° 0 mm 1 m/S 741 mmHg 84%
    10:00 +15°C° 0 mm 1 m/S 741 mmHg 80%
    11:00 +16°C° 0 mm 1 m/S 741 mmHg 75%
    12:00 +18°C° 0 mm 1 m/S 740 mmHg 70%
    13:00 +20°C° 0 mm 1 m/S 740 mmHg 66%
    14:00 +20°C° 0 mm 1 m/S 740 mmHg 69%
    15:00 +19°C° 0 mm 1 m/S 740 mmHg 71%
    16:00 +19°C° 0 mm 1 m/S 740 mmHg 74%
    17:00 +16°C° 0 mm 1 m/S 740 mmHg 79%
    18:00 +15°C° 0 mm 1 m/S 740 mmHg 84%
    19:00 +13°C° 0 mm 1 m/S 740 mmHg 89%
    20:00 +13°C° 0 mm 1 m/S 740 mmHg 90%
    21:00 +12°C° 0 mm 1 m/S 740 mmHg 90%
    22:00 +12°C° 0 mm 1 m/S 741 mmHg 91%
    23:00 +12°C° 0 mm 1 m/S 740 mmHg 90%

    26 Oktober, Donnerstag

    Zeit Temperatur Niederschläge Wind Luftdruck Luftfeuchtigkeit
    00:00 +11°C° 0 mm 1 m/S 740 mmHg 90%
    01:00 +11°C° 0 mm 1 m/S 740 mmHg 90%
    02:00 +11°C° 0 mm 1 m/S 740 mmHg 89%
    03:00 +11°C° 0 mm 1 m/S 740 mmHg 89%
    04:00 +11°C° 0 mm 1 m/S 740 mmHg 89%
    05:00 +10°C° 0 mm 1 m/S 740 mmHg 88%
    06:00 +10°C° 0 mm 1 m/S 740 mmHg 88%
    07:00 +10°C° 0 mm 1 m/S 740 mmHg 87%
    08:00 +12°C° 0 mm 1 m/S 740 mmHg 81%
    09:00 +14°C° 0 mm 1 m/S 741 mmHg 75%
    10:00 +16°C° 0 mm 1 m/S 741 mmHg 69%
    11:00 +18°C° 0 mm 1 m/S 741 mmHg 65%
    12:00 +20°C° 0 mm 1 m/S 740 mmHg 61%
    13:00 +21°C° 0 mm 1 m/S 740 mmHg 57%
    14:00 +20°C° 0 mm 1 m/S 740 mmHg 62%
    15:00 +20°C° 0 mm 1 m/S 740 mmHg 66%
    16:00 +19°C° 0 mm 1 m/S 740 mmHg 70%
    17:00 +18°C° 0 mm 1 m/S 740 mmHg 75%
    18:00 +15°C° 0 mm 1 m/S 740 mmHg 80%
    19:00 +14°C° 0 mm 1 m/S 740 mmHg 85%
    20:00 +13°C° 0 mm 1 m/S 740 mmHg 85%
    21:00 +13°C° 0 mm 1 m/S 740 mmHg 86%
    22:00 +12°C° 0 mm 1 m/S 740 mmHg 86%
    23:00 +12°C° 0 mm 1 m/S 740 mmHg 86%
    Mehr zeigen